User: anonymous   Login
Location: Unspecified
(0.0000°N, 0.0000°E)
Time: 01:36:42
(UTC+00:00)
Language:

USA-170 - Orbit

View from above orbital plane
View from above orbital plane
View from above satellite
View from above satellite

Ground track
Ground track

The orbit data is extracted from the following two-line orbital elements,

1 27875U 03040A   17107.74043911 0.00000000  00000-0  00000-0 0    04
2 27875   3.6035  70.1550 0003852  46.3836 313.6715  1.00270000    00
Epoch (UTC): 17 April 2017 17:46:13
Eccentricity: 0.0003852
inclination: 3.6035°
perigee height: 35770 km
apogee height: 35803 km
right ascension of ascending node: 70.1550°
argument of perigee: 46.3836°
revolutions per day: 1.00270000
mean anomaly at epoch: 313.6715°
orbit number at epoch: 0

The dashed part of the orbit path shows where the satellite is in the earth's shadow,  

DLR